Regional Weather Roundup
Issued by NWS Burlington, VT

Home | Current Version | Previous Version | Text Only | Print | Product List | Glossary On
Versions: 1 2 3 4 5 6 7 8 9 10 11 12 13 14 15 16 17 18 19 20 21 22 23 24 25 26 27 28 29 30 31 32 33 34 35 36 37 38 39 40 41 42 43 44 45 46 47 48 49 50
000
ASUS41 KBTV 280530
RWRBTV
VERMONT REGIONAL WEATHER ROUNDUP
NATIONAL WEATHER SERVICE BURLINGTON VT
100 AM EDT FRI AUG 28 2015

NOTE: "FAIR" INDICATES FEW OR NO CLOUDS BELOW 12,000 FEET WITH NO
SIGNIFICANT WEATHER AND/OR OBSTRUCTIONS TO VISIBILITY.

* THESE REPORTS ARE NOT UNDER NWS QUALITY CONTROL AND/OR DO NOT
  REPORT WEATHER SUCH AS PRECIPITATION AND FOG.

VTZ001>019-280600-
_____VERMONT_____


CITY           SKY/WX    TMP DP  RH WIND       PRES   REMARKS
BURLINGTON     CLEAR     59  55  87 E5        30.11R
MONTPELIER     CLEAR     52  51  97 S3        30.16R
MORRISVILLE    MOCLDY    56  52  86 CALM      30.13R
ST. JOHNSBURY*   N/A     56  53  90 MISG      30.10R
LYNDONVILLE*   FAIR      56  53  89 W5        30.13R
MIDDLEBURY*    FAIR      54  54 100 CALM      30.13R
RUTLAND*       CLEAR     54  46  76 SE8       30.14S
SPRINGFIELD    CLEAR     53  51  93 CALM      30.13R
HIGHGATE*      CLOUDY    62  56  82 CALM      30.11R
NEWPORT*       FAIR      58  55  87 W3        30.12S
BENNINGTON     CLEAR     57  54  89 S5        30.14R
SUTTON*          N/A     54 N/A N/A MISG        N/A
MT. MANSFIELD*   N/A     50 N/A N/A NW20        N/A

_____LAKE CHAMPLAIN_____


CITY           SKY/WX    TMP DP  RH WIND       PRES   REMARKS
COLCHESTER RF*   N/A     66  59  77 NW18        N/A
DIAMOND ISL*     N/A     63  59  88 SE6         N/A

$$

NYZ007-026>031-035-052-083-280600-
_____NORTHERN NEW YORK_____


CITY           SKY/WX    TMP DP  RH WIND       PRES   REMARKS
PLATTSBURGH    CLEAR     60  55  83 VRB3      30.11R
SARANAC LAKE   CLOUDY    53  52  96 CALM      30.15S
MASSENA        CLEAR     52  52 100 CALM      30.15R FOG
OGDENSBURG*    CLEAR     54  54 100 CALM      30.15R
POTSDAM*       CLEAR     57  57 100 CALM      30.14S
WATERTOWN      CLOUDY    53  51  93 CALM      30.15R
FT DRUM        CLEAR     54  52  92 SW3       30.14S
ALBANY         CLEAR     62  53  72 W3        30.14R
GLENS FALLS    CLEAR     55  51  86 CALM      30.12S

$$
NHZ002-005-011-280600-
_____NEW HAMPSHIRE_____


CITY           SKY/WX    TMP DP  RH WIND       PRES   REMARKS
LEBANON        PTCLDY    52  50  93 CALM      30.11F
KEENE          CLEAR     54  48  82 CALM      30.12F
MT WASHINGTON  FOG       41  41 100 W23         N/A  VSB 1/16WCI  31
PLYMOUTH       FAIR      56  53  89 NW3       30.10R
WHITEFIELD     MOCLDY    53  51  93 CALM      30.12R

$$

_____REGIONAL QUEBEC LOCATIONS_____


CITY           SKY/WX    TMP DP  RH WIND       PRES   REMARKS
MONTREAL       PTCLDY    59  54  82 W6        30.11R
QUEBEC CITY    CLEAR     55  52  88 SW8       30.04R
SHERBROOKE     CLOUDY    59  57  94 W3        30.09R

_____REGIONAL ONTARIO LOCATIONS_____


CITY           SKY/WX    TMP DP  RH WIND       PRES   REMARKS
OTTAWA         CLEAR     52  52 100 W3        30.15R

______KEY______
VSB  - VISIBILITY IN MILES
WCI  - WIND CHILL INDEX
HX   - HEAT INDEX
$$
NNNN


USA.gov is the U.S. government's official web portal to all federal, state and local government web resources and services.